Regional Weather Roundup
Issued by NWS

Home | Current Version | Previous Version | Graphics & Text | Print | Product List | Glossary On
Versions: 1 2 3 4 5 6 7 8 9 10 11 12 13 14 15 16 17 18 19 20 21 22 23 24 25 26 27 28 29 30 31 32 33 34 35 36 37 38 39 40 41 42 43 44 45 46 47 48 49 50
000
ASUS43 KIND 012259
RWRIN

WEATHER ROUNDUP FOR INDIANA
NATIONAL WEATHER SERVICE INDIANAPOLIS IN
700 PM EDT WED APR 01 2015

NOTE: "FAIR" INDICATES FEW OR NO CLOUDS BELOW 12,000 FEET WITH NO
SIGNIFICANT WEATHER AND/OR OBSTRUCTIONS TO VISIBILITY.

* - STATION DOES NOT REPORT WEATHER SUCH AS PRECIPITATION OR FOG.

+ - STATION NOT QUALITY CONTROLLED BY THE NATIONAL WEATHER SERVICE.
    USE DATA WITH CAUTION...ESPECIALLY DEWPOINT AND RELATIVE
    HUMIDITY OBSERVATIONS.

INZ001>003-010>013-019-020-020000-
NORTHWEST INDIANA

CITY           SKY/WX    TMP DP  RH WIND       PRES   REMARKS
GARY /AIRPORT/ MOSUNNY   72  23  16 S12G23    29.92F

$$

LMZ046-743>745-020000-
SOUTHERN LAKE MICHIGAN

STATION/POSITION TIME  TEMP WIND        PRES
                       AIR  DIR/SP/G
                 (UTC) (F)  (DEG/KT/KT) (MB)
BURNS HARBOR     2200   68  190/ 15/ 20 1013.9F
MICHIGAN CITY    2200       160/ 15/ 19   N/A

$$

INZ004-005-014>016-021>024-020000-
NORTH CENTRAL INDIANA

CITY           SKY/WX    TMP DP  RH WIND       PRES   REMARKS
ELKHART        SUNNY     68  30  24 S12       29.97F
GOSHEN         SUNNY     67  36  31 S16       29.97F
SOUTH BEND     MOSUNNY   68  33  27 S17G25    29.95F

$$

INZ006>009-017-018-025>027-020000-
NORTHEAST INDIANA

CITY           SKY/WX    TMP DP  RH WIND       PRES   REMARKS
ANGOLA *+      SUNNY     64  36  34 S12       29.99F
FORT WAYNE     PTSUNNY   65  36  34 S12       30.02F

$$

INZ028-029-035-036-043>045-051>053-020000-
WEST CENTRAL INDIANA

CITY           SKY/WX    TMP DP  RH WIND       PRES   REMARKS
CRAWFORDSVL +  SUNNY     65  26  22 SE12      30.00S
GREENCASTLE +  MOSUNNY   64  28  25 SE13      30.02S
LAFAYETTE      SUNNY     68  34  28 S13       29.97F
TERRE HAUTE    MOSUNNY   67  37  33 S9        30.00F

$$

INZ030>032-037>040-046>048-054>057-064-065-020000-
CENTRAL INDIANA

CITY           SKY/WX    TMP DP  RH WIND       PRES   REMARKS
COLUMBUS       SUNNY     64  25  22 S12       30.04F
GREENWOOD *+   SUNNY     64  30  27 S9        30.04S
INDIANAPOLIS   MOSUNNY   65  33  30 SE13      30.01S
-EAGLE CREEK   SUNNY     66  32  28 SE12G20   30.02S
KOKOMO *+      SUNNY     64  36  34 S14       30.01F
MT COMFORT *+  SUNNY     64  18  16 S10       30.04S
SHELBYVILLE    SUNNY     67  37  33 S13       30.03F

$$

INZ033-034-041-042-049-050-058-059-020000-
EAST CENTRAL INDIANA

CITY           SKY/WX    TMP DP  RH WIND       PRES   REMARKS
MUNCIE         SUNNY     66  33  29 S10       30.03F

$$

INZ060-061-067>069-081>083-085>088-020000-
SOUTHWEST INDIANA

CITY           SKY/WX    TMP DP  RH WIND       PRES   REMARKS
EVANSVILLE     MOSUNNY   72  34  24 SE8       30.01F
HUNTINGBURG *+ MOSUNNY   68  36  30 SE13      30.02F

$$

INZ062-063-066-070>080-084-089>092-020000-
SOUTH CENTRAL AND SOUTHEAST INDIANA

CITY           SKY/WX    TMP DP  RH WIND       PRES   REMARKS
BLOOMINGTON    MOSUNNY   66  33  29 S10       30.03S
MADISON *+     MOSUNNY   64  27  24 S8        30.08S
SEYMOUR +      MOSUNNY   68  37  32 SE10      30.05R

$$



USA.gov is the U.S. government's official web portal to all federal, state and local government web resources and services.